Jacksonville, FL

7:02 PM EDT on September 25, 2016 (GMT -0400)
Cecil

Weather History for KVQQ - April, 2014

Change the Weather History Date:

Tuesday, April 22, 2014

  Actual Average (KJAX) Record (KJAX)
Temperature  
Mean Temperature 66 °F 68 °F  
Max Temperature 82 °F 80 °F 93 °F (1968)
Min Temperature 50 °F 56 °F 42 °F (1950)
Degree Days  
Heating Degree Days 0 1  
Month to date heating degree days 48  
Since 1 July heating degree days 1337  
Cooling Degree Days 1 4  
Month to date cooling degree days 72  
Year to date cooling degree days 155  
Growing Degree Days 16 (Base 50)    
Moisture  
Dew Point 54 °F    
Average Humidity 79    
Maximum Humidity 100    
Minimum Humidity 39    
Precipitation  
Precipitation 0.00 in 0.08 in 1.21 in (1938)
Month to date precipitation 2.07  
Year to date precipitation 12.51  
Snow  
Snow 0.00 in 0.00 in 0.00 in (2002)
Month to date snowfall 0.0  
Since 1 July snowfall T  
Snow Depth -    
Sea Level Pressure  
Sea Level Pressure 29.92 in    
Wind  
Wind Speed 2 mph (WSW)    
Max Wind Speed 14 mph    
Max Gust Speed -    
Visibility 8 miles    
Events      
T = Trace of Precipitation, MM = Missing Value Source: NWS Daily Summary

Daily Weather History Graph

Daily Weather History Graph

Search for Another Location

Airport or City:

Trip Planner

Search our weather history database for the weather conditions in past years. The results will help you decide how hot, cold, wet, or windy it might be!

Date:

Astronomy

Apr. 22, 2014 Rise Set
Actual Time 6:52 AM EDT 7:59 PM EDT
Civil Twilight 6:28 AM EDT 8:24 PM EDT
Nautical Twilight 5:58 AM EDT 8:54 PM EDT
Astronomical Twilight 5:28 AM EDT 9:24 PM EDT
Moon 2:10 AM EDT (4/22) 1:28 PM EDT (4/22)
Length of Visible Light 13h 56m
Length of Day
13h 06m
Last Quarter, 46% of the Moon is Illuminated
Apr 22
Last Quarter
Apr 29
New
May 6
First Quarter
May 14
Full
May 21
Last Quarter

Hourly Weather History & Observations

Time (EDT) Temp. Heat Index Dew Point Humidity Pressure Visibility Wind Dir Wind Speed Gust Speed Precip Events Conditions
12:15 AM 53.6 °F - 53.6 °F 100% 30.00 in 5.0 mi Calm Calm - N/A   Clear
12:35 AM 53.6 °F - 53.6 °F 100% 29.99 in 3.0 mi Calm Calm - N/A   Clear
12:55 AM 53.6 °F - 53.6 °F 100% 29.99 in 5.0 mi Calm Calm - N/A   Clear
1:15 AM 53.6 °F - 53.6 °F 100% 29.99 in 6.0 mi Calm Calm - N/A   Clear
1:35 AM 53.6 °F - 53.6 °F 100% 29.98 in 7.0 mi Calm Calm - N/A   Clear
1:55 AM 51.8 °F - 51.8 °F 100% 29.97 in 8.0 mi Calm Calm - N/A   Clear
2:15 AM 51.8 °F - 50.0 °F 94% 29.97 in 4.0 mi Calm Calm - N/A   Clear
2:35 AM 50.0 °F - 50.0 °F 100% 29.96 in 5.0 mi Calm Calm - N/A   Clear
2:55 AM 50.0 °F - 50.0 °F 100% 29.95 in 3.0 mi Calm Calm - N/A   Clear
3:15 AM 50.0 °F - 50.0 °F 100% 29.95 in 7.0 mi Calm Calm - N/A   Clear
3:35 AM 50.0 °F - 50.0 °F 100% 29.94 in 6.0 mi Calm Calm - N/A   Clear
3:55 AM 50.0 °F - 50.0 °F 100% 29.95 in 4.0 mi Calm Calm - N/A   Clear
4:15 AM 50.0 °F - 50.0 °F 100% 29.94 in 5.0 mi Calm Calm - N/A   Clear
4:35 AM 50.0 °F - 50.0 °F 100% 29.94 in 5.0 mi Calm Calm - N/A   Clear
4:55 AM 50.0 °F - 48.2 °F 94% 29.94 in 1.5 mi Calm Calm - N/A   Clear
5:15 AM 50.0 °F - 50.0 °F 100% 29.95 in 5.0 mi Calm Calm - N/A   Clear
5:35 AM 50.0 °F - 50.0 °F 100% 29.95 in 9.0 mi Calm Calm - N/A   Clear
5:55 AM 50.0 °F - 50.0 °F 100% 29.95 in 5.0 mi Calm Calm - N/A   Clear
6:15 AM 50.0 °F - 50.0 °F 100% 29.95 in 9.0 mi Calm Calm - N/A   Clear
6:35 AM 50.0 °F - 48.2 °F 94% 29.95 in 9.0 mi Calm Calm - N/A   Clear
6:50 AM 50.0 °F - 48.2 °F 94% 29.95 in 7.0 mi Calm Calm - N/A   Clear
7:50 AM 51.8 °F - 51.8 °F 100% 29.96 in 10.0 mi Calm Calm - N/A   Clear
8:50 AM 62.6 °F - 59.0 °F 88% 29.96 in 10.0 mi Calm Calm - N/A   Clear
9:50 AM 71.6 °F - 60.8 °F 69% 29.96 in 10.0 mi West 10.4 mph - N/A   Clear
10:50 AM 75.2 °F - 57.2 °F 53% 29.96 in 10.0 mi West 5.8 mph - N/A   Clear
11:50 AM 77.0 °F - 57.2 °F 50% 29.95 in 10.0 mi West 9.2 mph - N/A   Clear
12:50 PM 78.8 °F - 55.4 °F 44% 29.93 in 10.0 mi WNW 4.6 mph - N/A   Clear
1:50 PM 80.6 °F 80.5 °F 55.4 °F 42% 29.90 in 10.0 mi WSW 5.8 mph - N/A   Partly Cloudy
2:50 PM 80.6 °F 80.5 °F 55.4 °F 42% 29.88 in 10.0 mi Variable 5.8 mph - N/A   Scattered Clouds
3:50 PM 82.4 °F 81.7 °F 55.4 °F 39% 29.85 in 10.0 mi WSW 5.8 mph - N/A   Partly Cloudy
5:50 PM 80.6 °F 80.8 °F 57.2 °F 45% 29.83 in 10.0 mi WSW 13.8 mph - N/A   Partly Cloudy
6:50 PM 78.8 °F - 55.4 °F 44% 29.83 in 10.0 mi WSW 8.1 mph - N/A   Partly Cloudy
7:50 PM 75.2 °F - 57.2 °F 53% 29.83 in 10.0 mi WSW 8.1 mph - N/A   Clear
8:15 PM 71.6 °F - 57.2 °F 60% 29.84 in 10.0 mi SW 5.8 mph - N/A   Clear
8:35 PM 71.6 °F - 57.2 °F 60% 29.85 in 10.0 mi SW 6.9 mph - N/A   Clear
8:55 PM 71.6 °F - 57.2 °F 60% 29.85 in 10.0 mi SW 6.9 mph - N/A   Clear
9:15 PM 71.6 °F - 57.2 °F 60% 29.86 in 10.0 mi WSW 5.8 mph - N/A   Clear
9:35 PM 69.8 °F - 57.2 °F 64% 29.87 in 10.0 mi WSW 5.8 mph - N/A   Clear
9:55 PM 68.0 °F - 57.2 °F 68% 29.88 in 10.0 mi WSW 6.9 mph - N/A   Clear
10:15 PM 68.0 °F - 57.2 °F 68% 29.88 in 10.0 mi SW 9.2 mph - N/A   Clear
10:35 PM 68.0 °F - 57.2 °F 68% 29.89 in 10.0 mi SW 6.9 mph - N/A   Clear
10:55 PM 66.2 °F - 59.0 °F 78% 29.89 in 10.0 mi WSW 4.6 mph - N/A   Clear
11:15 PM 66.2 °F - 59.0 °F 78% 29.89 in 10.0 mi WSW 6.9 mph - N/A   Clear
11:35 PM 66.2 °F - 59.0 °F 78% 29.89 in 10.0 mi WSW 5.8 mph - N/A   Clear
11:55 PM 64.4 °F - 59.0 °F 83% 29.88 in 10.0 mi SW 5.8 mph - N/A   Clear